GFSCGP_500_temp_021.txt.gz
Temp
-11 -12 -10 -9 -9 -10 -10 -11 -10 -10 -11 -13 -10 -11 -13 -11 -10 -10 -11 -10 -9 -10 -10 -11 -10 -10 -10 -10 -10 -11 -11 -12 -12 -12 -13 -13 -13 -14 -14 -14 -13 -13 -12 -12
-12 -10 -8 -10 -10 -11 -11 -11 -10 -11 -11 -13 -12 -13 -11 -11 -11 -9 -9 -9 -9 -10 -10 -10 -10 -9 -10 -10 -11 -11 -12 -12 -12 -13 -13 -13 -13 -13 -13 -13 -12 -12 -12 -12
-11 -8 -11 -10 -11 -10 -10 -10 -10 -10 -12 -13 -13 -12 -9 -10 -10 -10 -9 -9 -10 -10 -10 -10 -10 -10 -10 -11 -11 -11 -12 -12 -12 -13 -12 -12 -12 -12 -12 -12 -12 -12 -13 -13
-11 -9 -10 -11 -10 -10 -10 -10 -10 -11 -11 -11 -13 -9 -9 -9 -9 -9 -9 -9 -10 -10 -10 -10 -10 -11 -10 -11 -11 -11 -11 -12 -12 -11 -12 -12 -12 -12 -12 -13 -12 -12 -13 -13
-9 -10 -11 -11 -8 -12 -8 -12 -11 -11 -11 -12 -11 -10 -9 -9 -9 -10 -11 -10 -10 -10 -10 -10 -10 -11 -11 -11 -11 -11 -11 -11 -11 -11 -11 -11 -12 -12 -12 -12 -12 -13 -13 -13
-10 -11 -12 -10 -11 -12 -12 -12 -12 -12 -11 -11 -9 -11 -8 -9 -10 -10 -10 -10 -10 -10 -10 -10 -10 -11 -11 -11 -11 -11 -11 -11 -11 -11 -11 -11 -12 -12 -12 -12 -12 -13 -13 -13
-12 -13 -12 -12 -12 -12 -12 -12 -14 -12 -10 -8 -10 -10 -8 -9 -10 -9 -10 -10 -10 -10 -10 -10 -11 -11 -11 -11 -11 -11 -11 -10 -11 -11 -11 -12 -12 -12 -12 -12 -12 -13 -13 -13
-18 -15 -13 -10 -10 -10 -11 -12 -9 -9 -10 -9 -12 -9 -8 -10 -9 -10 -10 -10 -10 -10 -10 -11 -11 -11 -11 -11 -11 -11 -10 -11 -11 -11 -11 -12 -12 -12 -12 -12 -12 -12 -13 -13
-20 -17 -15 -14 -12 -12 -10 -14 -8 -13 -12 -12 -11 -12 -12 -10 -10 -10 -10 -10 -10 -11 -11 -11 -11 -11 -11 -11 -11 -10 -11 -11 -11 -11 -12 -12 -11 -11 -12 -12 -12 -12 -12 -12
-20 -20 -18 -18 -14 -13 -15 -10 -15 -12 -11 -12 -12 -11 -11 -11 -11 -10 -10 -10 -11 -11 -11 -11 -12 -11 -11 -10 -10 -10 -11 -11 -11 -11 -11 -11 -11 -12 -12 -12 -12 -12 -12 -12
-21 -20 -18 -18 -18 -14 -14 -15 -12 -12 -13 -12 -12 -11 -11 -12 -11 -11 -11 -11 -11 -11 -11 -12 -11 -11 -10 -10 -10 -11 -11 -11 -11 -11 -11 -11 -11 -12 -12 -12 -12 -12 -12 -12
-22 -20 -19 -19 -18 -16 -15 -16 -12 -11 -11 -13 -11 -12 -11 -11 -11 -11 -12 -11 -11 -12 -12 -12 -11 -11 -10 -10 -11 -11 -11 -11 -11 -11 -11 -11 -12 -12 -12 -12 -12 -12 -12 -12
-21 -20 -18 -18 -17 -17 -17 -16 -14 -12 -14 -13 -12 -12 -11 -11 -11 -11 -11 -12 -12 -12 -12 -12 -11 -11 -10 -10 -11 -11 -11 -11 -11 -11 -11 -11 -12 -12 -11 -11 -12 -12 -12 -12
-21 -20 -18 -16 -18 -17 -17 -16 -15 -13 -14 -13 -13 -13 -12 -12 -11 -11 -11 -12 -12 -12 -12 -12 -11 -11 -10 -10 -11 -11 -11 -11 -11 -11 -11 -11 -12 -12 -12 -12 -12 -12 -12 -12
-21 -20 -18 -17 -17 -17 -16 -15 -15 -15 -14 -13 -13 -13 -12 -13 -12 -11 -12 -12 -12 -12 -12 -12 -11 -11 -10 -10 -11 -11 -11 -11 -11 -11 -11 -11 -12 -12 -12 -12 -12 -12 -12 -12
-20 -20 -19 -18 -16 -16 -16 -16 -15 -15 -15 -14 -13 -13 -13 -13 -11 -12 -12 -12 -12 -12 -12 -11 -11 -11 -10 -11 -11 -11 -11 -11 -11 -11 -11 -11 -11 -12 -12 -12 -12 -12 -12 -12
-20 -20 -20 -18 -17 -16 -16 -16 -15 -15 -15 -15 -14 -14 -14 -14 -13 -13 -12 -13 -13 -12 -12 -11 -11 -11 -11 -11 -11 -11 -11 -11 -11 -11 -11 -11 -11 -12 -12 -12 -12 -12 -12 -12
-20 -20 -19 -18 -17 -17 -16 -16 -16 -15 -15 -15 -15 -13 -14 -13 -13 -12 -11 -12 -13 -13 -12 -11 -11 -11 -11 -11 -11 -11 -11 -11 -11 -11 -11 -11 -12 -12 -12 -12 -12 -12 -12 -12
-20 -19 -18 -18 -17 -17 -16 -16 -16 -16 -16 -15 -14 -16 -14 -12 -11 -12 -12 -12 -12 -12 -12 -12 -11 -11 -11 -11 -11 -11 -11 -11 -11 -11 -11 -11 -12 -12 -12 -12 -12 -12 -12 -12
-20 -18 -19 -18 -17 -16 -16 -16 -16 -16 -16 -12 -12 -12 -12 -12 -13 -12 -12 -12 -12 -12 -11 -11 -11 -11 -11 -11 -11 -11 -11 -11 -11 -11 -11 -11 -12 -12 -12 -12 -12 -12 -12 -12
-19 -19 -20 -20 -17 -16 -15 -16 -17 -15 -13 -12 -12 -12 -13 -13 -13 -12 -13 -13 -12 -12 -11 -11 -11 -11 -11 -11 -11 -11 -11 -11 -11 -12 -12 -12 -12 -12 -12 -13 -13 -12 -12 -12
-20 -19 -19 -20 -18 -16 -17 -16 -16 -14 -13 -13 -12 -13 -12 -13 -13 -13 -12 -13 -12 -12 -12 -12 -11 -11 -11 -11 -11 -11 -11 -11 -11 -12 -12 -12 -12 -12 -12 -12 -12 -12 -12 -12
-20 -19 -19 -19 -19 -17 -17 -15 -14 -14 -13 -13 -13 -13 -12 -13 -13 -13 -13 -12 -12 -12 -12 -12 -12 -12 -12 -11 -11 -11 -11 -11 -11 -12 -12 -12 -12 -12 -12 -12 -12 -12 -12 -12
-20 -20 -19 -18 -18 -17 -16 -16 -15 -14 -14 -13 -13 -13 -13 -13 -13 -13 -13 -13 -12 -12 -12 -12 -12 -12 -12 -11 -11 -11 -11 -11 -12 -12 -12 -12 -12 -12 -12 -12 -12 -12 -12 -12
-20 -19 -19 -18 -18 -18 -17 -16 -16 -14 -14 -14 -14 -13 -13 -13 -13 -13 -13 -13 -13 -12 -12 -12 -12 -12 -13 -12 -11 -11 -11 -12 -12 -12 -12 -12 -12 -12 -12 -12 -12 -12 -12 -12
-20 -19 -19 -18 -18 -17 -17 -17 -16 -15 -14 -14 -14 -14 -13 -13 -13 -13 -13 -13 -12 -12 -12 -12 -12 -13 -12 -12 -12 -11 -11 -12 -12 -12 -12 -12 -12 -12 -12 -12 -12 -12 -12 -12

GFSCGP_500_temp_024.txt.gz
Temp
-11 -11 -10 -9 -10 -10 -11 -10 -10 -10 -10 -11 -13 -12 -9 -10 -12 -11 -12 -9 -10 -10 -11 -12 -10 -10 -10 -9 -10 -10 -10 -10 -9 -10 -11 -12 -13 -14 -14 -14 -13 -13 -13 -13
-12 -10 -9 -10 -10 -11 -11 -11 -11 -10 -11 -11 -13 -12 -10 -9 -9 -11 -11 -10 -9 -9 -10 -10 -9 -10 -9 -9 -10 -10 -10 -10 -11 -11 -12 -12 -13 -13 -13 -13 -12 -13 -13 -13
-11 -9 -12 -10 -10 -11 -10 -10 -10 -10 -11 -12 -13 -12 -9 -9 -10 -10 -9 -10 -9 -10 -9 -10 -10 -11 -9 -10 -11 -11 -11 -11 -11 -11 -12 -12 -12 -12 -12 -12 -12 -12 -13 -13
-11 -10 -10 -11 -10 -11 -10 -10 -10 -10 -11 -11 -13 -10 -8 -9 -9 -9 -10 -9 -9 -9 -9 -9 -10 -10 -10 -11 -11 -11 -11 -11 -11 -11 -12 -12 -12 -12 -11 -12 -12 -12 -12 -13
-9 -10 -11 -11 -9 -11 -9 -12 -11 -11 -12 -12 -11 -10 -6 -10 -9 -10 -10 -10 -9 -9 -9 -10 -10 -9 -11 -11 -11 -11 -11 -11 -11 -11 -12 -11 -11 -11 -11 -12 -12 -13 -12 -13
-11 -12 -13 -10 -11 -13 -12 -11 -12 -12 -13 -14 -8 -10 -6 -8 -10 -9 -10 -9 -9 -9 -10 -10 -10 -10 -11 -11 -12 -12 -11 -11 -11 -11 -11 -11 -11 -11 -12 -12 -12 -12 -13 -13
-13 -14 -12 -12 -11 -11 -12 -12 -12 -13 -13 -8 -9 -11 -7 -8 -10 -9 -9 -9 -9 -10 -10 -9 -10 -11 -11 -11 -12 -12 -11 -11 -11 -11 -11 -11 -11 -11 -12 -12 -12 -12 -12 -12
-17 -16 -14 -11 -10 -11 -13 -12 -11 -10 -9 -8 -10 -9 -8 -10 -10 -9 -9 -9 -9 -10 -10 -10 -11 -11 -11 -12 -12 -11 -11 -11 -11 -11 -11 -11 -11 -12 -12 -12 -12 -12 -12 -12
-20 -18 -15 -15 -13 -15 -13 -16 -10 -13 -13 -12 -10 -10 -10 -11 -10 -9 -9 -9 -10 -10 -11 -11 -11 -11 -12 -12 -11 -11 -11 -11 -11 -11 -11 -11 -11 -12 -12 -12 -12 -12 -12 -12
-21 -19 -17 -15 -16 -13 -16 -13 -14 -13 -14 -13 -10 -11 -11 -11 -10 -9 -9 -10 -9 -11 -11 -11 -11 -11 -11 -11 -11 -11 -11 -11 -11 -11 -11 -11 -11 -11 -11 -11 -12 -12 -11 -12
-22 -21 -19 -18 -17 -16 -15 -15 -14 -14 -13 -12 -12 -11 -11 -11 -11 -9 -10 -10 -10 -10 -11 -11 -11 -11 -11 -11 -11 -11 -11 -11 -11 -11 -11 -11 -11 -11 -11 -11 -11 -12 -12 -11
-22 -21 -20 -19 -18 -18 -16 -14 -14 -15 -12 -13 -13 -11 -11 -10 -10 -10 -11 -10 -10 -11 -11 -11 -11 -11 -12 -11 -11 -11 -11 -11 -11 -11 -11 -11 -11 -11 -11 -11 -11 -12 -12 -11
-22 -21 -20 -19 -19 -18 -18 -16 -15 -15 -15 -13 -12 -11 -12 -10 -11 -10 -12 -10 -11 -11 -11 -11 -12 -12 -11 -11 -11 -11 -11 -11 -11 -11 -11 -11 -11 -11 -11 -11 -12 -12 -12 -11
-21 -21 -20 -19 -18 -19 -17 -17 -15 -16 -14 -13 -12 -12 -12 -12 -11 -11 -11 -11 -11 -11 -12 -12 -12 -12 -11 -11 -11 -11 -11 -11 -11 -11 -11 -11 -11 -11 -11 -11 -12 -12 -12 -11
-21 -20 -20 -20 -17 -18 -17 -17 -16 -15 -14 -13 -12 -12 -13 -12 -11 -11 -11 -11 -11 -12 -12 -12 -12 -11 -11 -11 -11 -11 -11 -11 -11 -11 -11 -11 -10 -11 -11 -11 -11 -12 -12 -12
-21 -21 -20 -20 -17 -17 -16 -16 -16 -15 -14 -13 -13 -12 -12 -12 -11 -11 -11 -11 -12 -12 -12 -12 -11 -11 -11 -11 -11 -11 -11 -11 -11 -11 -11 -11 -10 -11 -11 -11 -12 -12 -12 -12
-21 -20 -20 -19 -19 -17 -16 -16 -16 -15 -14 -12 -13 -13 -12 -12 -12 -12 -12 -12 -12 -12 -12 -12 -11 -11 -11 -10 -11 -11 -11 -11 -11 -11 -11 -11 -11 -11 -11 -12 -12 -12 -12 -12
-20 -20 -20 -19 -17 -17 -16 -15 -15 -14 -14 -12 -13 -13 -13 -12 -13 -12 -11 -12 -13 -13 -12 -12 -11 -11 -11 -11 -11 -11 -11 -11 -11 -11 -11 -11 -11 -12 -12 -11 -12 -12 -12 -12
-21 -20 -20 -19 -18 -16 -16 -15 -15 -14 -14 -13 -13 -14 -13 -13 -12 -12 -11 -12 -12 -12 -12 -12 -11 -11 -11 -11 -11 -11 -11 -11 -11 -11 -11 -11 -12 -12 -12 -12 -12 -12 -12 -12
-21 -20 -20 -19 -18 -15 -15 -15 -14 -14 -14 -14 -14 -14 -14 -13 -12 -12 -12 -13 -13 -12 -12 -12 -12 -11 -11 -11 -11 -11 -11 -11 -11 -11 -11 -12 -12 -12 -12 -12 -12 -12 -12 -12
-20 -20 -20 -19 -18 -16 -16 -15 -15 -14 -15 -14 -14 -14 -13 -12 -12 -11 -12 -13 -13 -13 -12 -12 -12 -11 -11 -11 -11 -11 -11 -11 -11 -11 -12 -12 -12 -12 -12 -12 -12 -12 -12 -12
-20 -20 -20 -19 -18 -16 -16 -15 -15 -14 -15 -14 -14 -14 -13 -12 -12 -12 -12 -12 -13 -13 -13 -13 -13 -12 -11 -11 -11 -11 -11 -11 -11 -11 -12 -12 -12 -12 -12 -12 -12 -12 -12 -12
-20 -20 -20 -20 -19 -18 -15 -15 -14 -14 -14 -14 -14 -14 -13 -12 -12 -12 -13 -12 -13 -13 -13 -13 -13 -12 -11 -11 -11 -11 -11 -11 -11 -11 -12 -12 -12 -12 -12 -12 -12 -12 -12 -12
-19 -19 -19 -20 -18 -17 -16 -16 -15 -14 -14 -14 -14 -14 -14 -13 -12 -12 -13 -13 -13 -13 -13 -13 -13 -13 -12 -11 -11 -11 -11 -11 -12 -11 -11 -12 -12 -12 -12 -12 -12 -12 -12 -13
-20 -20 -19 -19 -19 -19 -18 -16 -16 -16 -15 -14 -14 -13 -14 -13 -12 -13 -13 -13 -13 -13 -13 -13 -13 -13 -13 -12 -12 -12 -11 -11 -12 -12 -11 -12 -12 -12 -12 -12 -12 -12 -12 -12
-20 -19 -19 -19 -19 -18 -18 -17 -17 -17 -16 -15 -15 -14 -14 -13 -13 -13 -13 -13 -13 -13 -13 -13 -13 -13 -13 -12 -12 -12 -12 -12 -12 -12 -12 -11 -12 -12 -12 -12 -12 -12 -12 -12

GFSCGP_500_temp_030.txt.gz
Temp
-11 -11 -11 -10 -10 -11 -11 -10 -10 -10 -11 -12 -11 -10 -9 -9 -10 -10 -9 -9 -9 -9 -8 -9 -9 -9 -10 -10 -11 -11 -11 -12 -11 -12 -12 -12 -12 -11 -11 -11 -11 -12 -12 -13
-11 -11 -10 -11 -11 -11 -11 -11 -10 -11 -11 -11 -11 -10 -10 -9 -9 -9 -9 -9 -8 -8 -9 -9 -9 -9 -9 -10 -11 -11 -10 -11 -12 -12 -12 -12 -12 -12 -11 -11 -12 -12 -13 -13
-12 -11 -11 -11 -11 -11 -10 -10 -11 -11 -11 -11 -12 -10 -9 -9 -9 -9 -9 -9 -8 -9 -9 -9 -9 -9 -10 -10 -10 -10 -10 -11 -12 -12 -13 -12 -12 -12 -12 -12 -12 -13 -13 -13
-12 -12 -11 -11 -11 -11 -10 -11 -11 -11 -11 -10 -13 -9 -9 -8 -8 -8 -9 -8 -9 -9 -9 -9 -9 -9 -10 -10 -10 -10 -10 -11 -12 -12 -12 -12 -12 -12 -13 -13 -13 -13 -12 -12
-12 -13 -13 -12 -11 -11 -10 -11 -11 -11 -11 -11 -11 -11 -6 -9 -8 -8 -8 -9 -9 -9 -9 -9 -9 -10 -10 -10 -10 -11 -10 -11 -12 -12 -12 -11 -12 -12 -12 -12 -12 -12 -12 -12
-15 -16 -15 -14 -13 -12 -11 -11 -12 -12 -12 -11 -10 -10 -6 -8 -8 -8 -9 -9 -9 -9 -9 -9 -9 -9 -10 -11 -11 -11 -11 -11 -12 -12 -11 -12 -12 -12 -12 -12 -12 -12 -12 -12
-19 -19 -16 -15 -13 -13 -12 -12 -12 -12 -11 -9 -10 -10 -7 -8 -9 -9 -9 -9 -9 -8 -8 -8 -9 -10 -10 -11 -11 -11 -11 -12 -11 -11 -11 -12 -11 -12 -12 -12 -12 -12 -12 -12
-22 -21 -17 -16 -15 -14 -14 -13 -12 -10 -10 -9 -10 -8 -7 -8 -11 -10 -9 -9 -8 -8 -9 -9 -9 -10 -10 -10 -10 -11 -11 -11 -11 -11 -11 -11 -12 -11 -11 -12 -12 -12 -12 -12
-22 -21 -20 -19 -17 -16 -15 -13 -12 -12 -12 -10 -9 -8 -8 -9 -10 -11 -10 -9 -9 -9 -8 -9 -9 -10 -11 -11 -11 -11 -11 -11 -11 -11 -11 -11 -11 -11 -11 -11 -12 -12 -12 -12
-22 -21 -21 -22 -20 -17 -16 -15 -15 -13 -13 -10 -9 -8 -7 -9 -10 -11 -10 -10 -9 -9 -9 -10 -10 -10 -11 -11 -11 -11 -11 -11 -11 -11 -11 -11 -11 -11 -11 -12 -12 -12 -12 -12
-22 -22 -21 -21 -21 -19 -17 -17 -16 -15 -13 -11 -9 -8 -8 -10 -11 -11 -10 -10 -10 -9 -10 -10 -10 -10 -11 -11 -11 -11 -10 -11 -11 -11 -11 -11 -11 -11 -12 -12 -12 -12 -12 -12
-23 -23 -22 -22 -21 -20 -20 -18 -17 -16 -12 -11 -9 -8 -10 -11 -11 -11 -10 -10 -10 -10 -10 -10 -10 -10 -11 -11 -11 -10 -10 -11 -11 -11 -11 -11 -11 -12 -12 -12 -12 -12 -12 -12
-23 -22 -22 -22 -22 -21 -20 -18 -18 -16 -14 -10 -10 -8 -12 -12 -11 -12 -11 -11 -10 -10 -10 -10 -10 -11 -11 -11 -11 -11 -10 -10 -10 -10 -11 -11 -11 -11 -11 -12 -11 -12 -12 -12
-23 -23 -22 -21 -22 -21 -20 -20 -19 -17 -13 -11 -9 -10 -12 -12 -11 -11 -11 -11 -11 -11 -11 -11 -11 -11 -11 -11 -10 -10 -10 -10 -10 -10 -11 -11 -11 -11 -11 -12 -11 -12 -12 -12
-23 -22 -22 -22 -22 -22 -20 -20 -19 -17 -14 -11 -10 -12 -12 -12 -12 -12 -10 -11 -11 -11 -11 -11 -11 -11 -11 -10 -10 -10 -10 -10 -10 -11 -11 -11 -11 -11 -11 -12 -12 -12 -12 -12
-22 -22 -22 -22 -22 -22 -20 -20 -19 -18 -16 -12 -12 -12 -12 -13 -12 -11 -10 -11 -11 -11 -11 -11 -11 -11 -11 -10 -10 -10 -10 -10 -10 -11 -11 -11 -11 -11 -11 -12 -12 -12 -12 -12
-22 -22 -22 -21 -21 -21 -20 -20 -20 -19 -17 -13 -11 -12 -13 -13 -11 -11 -11 -12 -12 -11 -12 -12 -11 -11 -10 -10 -10 -10 -10 -10 -10 -10 -11 -11 -11 -11 -12 -12 -12 -12 -12 -12
-22 -21 -20 -20 -20 -21 -21 -19 -19 -19 -17 -15 -12 -13 -13 -12 -11 -11 -12 -13 -12 -12 -12 -11 -11 -11 -10 -10 -10 -11 -10 -11 -11 -11 -11 -11 -11 -12 -12 -12 -12 -12 -12 -12
-21 -21 -21 -20 -20 -19 -19 -19 -19 -18 -17 -15 -14 -13 -13 -12 -11 -11 -11 -11 -12 -12 -12 -11 -11 -10 -11 -11 -10 -11 -11 -11 -11 -11 -11 -11 -12 -12 -12 -12 -12 -12 -12 -12
-21 -21 -21 -21 -20 -19 -18 -18 -18 -18 -17 -15 -14 -13 -12 -12 -12 -11 -11 -12 -11 -12 -12 -12 -11 -11 -11 -11 -11 -11 -11 -11 -11 -12 -12 -12 -12 -12 -12 -12 -12 -12 -12 -12
-21 -20 -20 -20 -19 -18 -17 -18 -18 -18 -17 -14 -14 -14 -12 -12 -10 -11 -11 -12 -12 -13 -12 -12 -11 -11 -11 -11 -11 -11 -11 -11 -11 -12 -12 -12 -12 -12 -11 -12 -12 -12 -12 -12
-20 -20 -20 -19 -18 -18 -17 -18 -18 -17 -16 -15 -14 -14 -14 -12 -12 -12 -11 -12 -13 -13 -12 -12 -11 -11 -11 -11 -11 -11 -11 -11 -11 -12 -12 -12 -12 -12 -12 -12 -12 -11 -12 -12
-20 -20 -19 -19 -18 -18 -17 -17 -17 -16 -16 -14 -14 -13 -13 -13 -12 -12 -11 -12 -13 -13 -13 -12 -12 -11 -11 -11 -11 -12 -12 -12 -12 -12 -12 -12 -12 -12 -11 -12 -12 -12 -12 -12
-20 -20 -20 -19 -19 -18 -16 -16 -16 -16 -13 -13 -14 -14 -12 -12 -12 -12 -12 -13 -13 -13 -14 -13 -12 -12 -12 -11 -11 -12 -12 -12 -12 -12 -12 -12 -12 -12 -12 -12 -12 -12 -12 -12
-20 -20 -20 -20 -19 -18 -16 -16 -15 -15 -15 -14 -13 -12 -13 -13 -13 -13 -13 -13 -13 -13 -13 -13 -13 -12 -12 -11 -11 -12 -12 -12 -12 -12 -12 -12 -12 -12 -12 -12 -12 -12 -12 -12
-20 -20 -20 -20 -19 -19 -18 -16 -16 -15 -15 -14 -13 -14 -14 -13 -13 -13 -14 -13 -13 -13 -13 -12 -13 -13 -12 -12 -12 -12 -12 -12 -12 -12 -12 -12 -12 -12 -12 -12 -12 -12 -12 -12

GFSCGP_500_temp_033.txt.gz
Temp
-12 -12 -11 -11 -11 -11 -11 -11 -11 -11 -11 -12 -11 -9 -9 -10 -10 -9 -8 -8 -8 -8 -9 -9 -9 -9 -9 -9 -9 -9 -10 -10 -11 -11 -12 -12 -13 -12 -12 -13 -13 -13 -13 -13
-12 -11 -11 -11 -11 -11 -11 -11 -11 -11 -12 -11 -11 -10 -9 -9 -9 -9 -9 -8 -8 -8 -9 -9 -10 -10 -9 -9 -9 -9 -10 -11 -11 -12 -12 -12 -12 -12 -12 -12 -13 -13 -13 -13
-13 -11 -12 -12 -11 -11 -11 -11 -11 -11 -11 -11 -11 -10 -9 -9 -9 -9 -8 -8 -8 -8 -9 -10 -10 -9 -8 -9 -9 -9 -10 -11 -11 -11 -11 -12 -12 -12 -13 -12 -13 -13 -13 -13
-15 -13 -12 -13 -12 -11 -11 -11 -11 -11 -11 -11 -12 -9 -9 -9 -8 -8 -8 -8 -9 -9 -10 -10 -9 -8 -9 -9 -9 -10 -11 -11 -11 -10 -11 -12 -12 -12 -12 -12 -12 -12 -12 -12
-15 -14 -13 -13 -13 -13 -11 -11 -11 -11 -11 -11 -11 -11 -7 -9 -8 -8 -9 -9 -9 -10 -9 -9 -8 -8 -9 -9 -9 -11 -11 -11 -11 -11 -11 -12 -12 -12 -12 -12 -12 -12 -12 -12
-19 -19 -18 -15 -14 -14 -13 -12 -12 -11 -11 -11 -10 -11 -7 -8 -9 -9 -9 -9 -10 -9 -9 -8 -8 -8 -9 -10 -10 -11 -11 -11 -11 -11 -11 -12 -12 -12 -12 -12 -12 -12 -12 -12
-21 -20 -18 -17 -16 -15 -13 -13 -12 -12 -12 -10 -10 -10 -7 -9 -9 -9 -9 -10 -10 -9 -8 -8 -8 -9 -9 -10 -10 -11 -10 -11 -11 -11 -12 -12 -12 -12 -12 -12 -12 -12 -12 -12
-22 -22 -20 -19 -18 -16 -14 -13 -13 -12 -11 -10 -10 -9 -8 -8 -9 -9 -10 -10 -9 -8 -9 -9 -9 -8 -9 -9 -10 -10 -11 -11 -11 -12 -12 -11 -11 -11 -11 -12 -12 -12 -12 -12
-22 -22 -22 -21 -20 -18 -16 -15 -14 -14 -12 -10 -10 -9 -8 -8 -9 -10 -10 -9 -9 -9 -9 -9 -8 -9 -9 -10 -10 -11 -11 -11 -11 -11 -11 -11 -11 -11 -12 -12 -12 -12 -12 -12
-22 -22 -22 -22 -22 -19 -18 -17 -16 -14 -13 -11 -10 -9 -8 -8 -10 -11 -10 -9 -9 -9 -9 -9 -9 -9 -9 -10 -10 -11 -11 -11 -11 -10 -10 -11 -11 -11 -11 -12 -12 -12 -12 -12
-22 -22 -22 -23 -22 -21 -19 -18 -18 -16 -13 -11 -10 -9 -8 -8 -10 -11 -11 -10 -10 -9 -9 -9 -9 -10 -10 -10 -11 -11 -11 -10 -10 -10 -11 -11 -11 -11 -11 -12 -12 -12 -11 -12
-23 -22 -22 -22 -22 -22 -22 -20 -19 -16 -12 -11 -10 -9 -9 -9 -10 -12 -11 -11 -10 -9 -9 -9 -9 -10 -10 -10 -11 -11 -10 -10 -10 -10 -10 -11 -11 -11 -11 -12 -12 -11 -11 -11
-23 -22 -22 -22 -22 -22 -22 -20 -19 -15 -14 -11 -10 -8 -12 -10 -11 -12 -12 -11 -10 -10 -10 -10 -10 -10 -10 -11 -11 -10 -10 -10 -10 -10 -11 -11 -11 -11 -11 -12 -12 -11 -11 -11
-23 -22 -22 -22 -22 -22 -21 -21 -20 -18 -13 -11 -10 -9 -11 -11 -12 -12 -12 -11 -10 -10 -9 -10 -11 -11 -11 -11 -11 -10 -11 -10 -10 -11 -11 -11 -11 -11 -11 -12 -12 -11 -11 -11
-23 -22 -22 -22 -22 -22 -22 -21 -20 -17 -14 -11 -10 -9 -13 -12 -13 -12 -12 -11 -10 -10 -11 -11 -11 -11 -11 -11 -11 -10 -11 -10 -10 -11 -10 -11 -11 -11 -11 -11 -12 -11 -11 -11
-23 -22 -22 -22 -22 -22 -22 -22 -21 -18 -14 -11 -10 -10 -13 -13 -12 -12 -11 -11 -11 -11 -12 -12 -11 -11 -11 -11 -10 -11 -10 -11 -11 -10 -10 -11 -11 -11 -11 -11 -12 -12 -12 -12
-22 -22 -22 -22 -22 -22 -22 -21 -21 -18 -15 -12 -10 -12 -13 -13 -13 -12 -12 -11 -12 -12 -13 -12 -12 -12 -11 -11 -11 -11 -10 -11 -11 -10 -10 -11 -11 -11 -11 -11 -12 -12 -12 -12
-22 -22 -22 -22 -21 -21 -21 -21 -20 -19 -17 -14 -11 -13 -13 -12 -12 -12 -12 -12 -12 -12 -13 -12 -12 -12 -12 -11 -11 -11 -11 -11 -11 -10 -10 -11 -11 -11 -11 -12 -12 -12 -12 -12
-22 -22 -21 -21 -21 -21 -21 -21 -20 -19 -17 -15 -13 -13 -13 -12 -12 -12 -12 -12 -11 -12 -13 -13 -13 -12 -12 -11 -11 -11 -11 -11 -11 -11 -11 -11 -11 -11 -12 -12 -12 -12 -12 -12
-21 -21 -21 -21 -21 -20 -21 -21 -20 -18 -18 -16 -14 -14 -13 -13 -12 -12 -12 -12 -12 -11 -12 -12 -13 -12 -12 -11 -11 -11 -11 -11 -11 -11 -11 -11 -11 -12 -12 -12 -11 -12 -12 -12
-21 -21 -21 -21 -21 -20 -20 -19 -19 -19 -17 -16 -15 -14 -13 -13 -12 -12 -12 -12 -11 -12 -12 -13 -13 -12 -12 -11 -11 -11 -11 -11 -11 -11 -12 -11 -11 -12 -12 -12 -12 -12 -12 -12
-21 -20 -20 -20 -19 -19 -19 -19 -19 -19 -17 -16 -15 -14 -14 -13 -12 -12 -11 -12 -12 -13 -13 -13 -13 -12 -12 -11 -11 -11 -11 -11 -11 -12 -12 -12 -12 -12 -12 -12 -11 -12 -12 -12
-20 -20 -20 -19 -19 -19 -19 -18 -19 -18 -16 -15 -15 -14 -13 -13 -13 -12 -12 -11 -13 -13 -13 -13 -13 -12 -11 -12 -11 -11 -11 -11 -12 -12 -12 -12 -12 -12 -12 -12 -12 -12 -12 -12
-20 -20 -19 -19 -19 -19 -18 -19 -17 -17 -16 -15 -15 -14 -13 -13 -13 -13 -13 -13 -13 -14 -13 -13 -13 -12 -11 -12 -12 -11 -11 -11 -12 -12 -12 -12 -12 -12 -12 -12 -12 -12 -12 -12
-20 -20 -20 -19 -19 -19 -18 -18 -18 -17 -15 -13 -14 -14 -13 -13 -13 -12 -12 -13 -13 -13 -13 -13 -13 -12 -11 -12 -12 -12 -11 -11 -12 -12 -13 -12 -12 -12 -12 -12 -12 -12 -12 -12
-20 -20 -20 -19 -18 -18 -17 -17 -17 -16 -16 -15 -15 -14 -13 -12 -13 -13 -12 -12 -12 -12 -13 -13 -13 -13 -12 -12 -12 -12 -12 -12 -12 -12 -13 -12 -12 -12 -12 -12 -12 -12 -12 -12

GFSCGP_500_temp_036.txt.gz
Temp
-12 -12 -11 -12 -12 -12 -12 -11 -11 -11 -11 -12 -11 -10 -10 -10 -9 -9 -9 -9 -8 -8 -8 -8 -8 -9 -9 -9 -9 -9 -10 -9 -9 -11 -10 -10 -11 -12 -13 -13 -13 -13 -13 -13
-13 -12 -12 -12 -12 -12 -12 -12 -11 -11 -12 -11 -11 -10 -10 -10 -9 -9 -9 -9 -8 -8 -8 -8 -8 -9 -9 -9 -9 -9 -9 -9 -10 -10 -10 -10 -11 -12 -13 -13 -13 -14 -13 -13
-15 -13 -13 -13 -12 -12 -12 -12 -12 -11 -11 -11 -11 -10 -10 -9 -9 -9 -9 -8 -8 -8 -8 -8 -9 -9 -9 -10 -9 -9 -9 -10 -10 -10 -10 -10 -10 -11 -12 -12 -13 -14 -14 -13
-21 -16 -16 -16 -14 -13 -12 -12 -12 -12 -12 -11 -12 -10 -10 -9 -9 -9 -9 -9 -9 -9 -9 -9 -9 -9 -9 -9 -9 -9 -9 -9 -9 -9 -10 -10 -11 -11 -12 -12 -13 -14 -13 -13
-22 -21 -20 -20 -17 -16 -13 -13 -12 -12 -12 -12 -11 -11 -8 -9 -8 -9 -9 -9 -9 -10 -9 -9 -9 -9 -9 -9 -8 -9 -9 -10 -10 -10 -10 -11 -11 -11 -12 -13 -13 -13 -13 -12
-22 -23 -23 -22 -20 -18 -16 -15 -14 -13 -12 -12 -11 -11 -9 -9 -9 -9 -9 -9 -9 -9 -9 -9 -9 -9 -8 -9 -9 -9 -9 -9 -9 -10 -11 -11 -11 -12 -12 -12 -12 -12 -12 -12
-22 -22 -23 -22 -21 -20 -18 -16 -15 -15 -14 -11 -12 -11 -9 -9 -9 -9 -9 -10 -10 -10 -9 -9 -9 -8 -9 -9 -9 -9 -9 -9 -10 -10 -11 -11 -12 -12 -12 -12 -12 -11 -12 -12
-22 -22 -23 -22 -22 -20 -19 -17 -15 -14 -13 -11 -11 -10 -9 -9 -9 -10 -9 -9 -10 -10 -9 -8 -8 -9 -9 -9 -9 -9 -9 -10 -10 -10 -11 -11 -12 -12 -11 -11 -11 -12 -12 -11
-22 -22 -22 -23 -22 -21 -20 -19 -16 -17 -15 -12 -11 -10 -9 -9 -10 -11 -11 -10 -10 -10 -9 -9 -9 -8 -9 -9 -9 -9 -10 -10 -10 -11 -11 -11 -11 -11 -11 -11 -11 -12 -11 -11
-23 -23 -22 -22 -22 -21 -21 -19 -19 -18 -15 -12 -11 -10 -9 -9 -9 -10 -10 -10 -10 -9 -9 -9 -8 -9 -9 -9 -9 -10 -10 -10 -11 -11 -11 -11 -11 -11 -11 -11 -11 -12 -12 -12
-23 -23 -23 -22 -22 -22 -22 -21 -20 -18 -15 -12 -11 -10 -10 -10 -9 -10 -10 -10 -10 -10 -9 -8 -9 -9 -9 -9 -10 -10 -11 -11 -11 -11 -11 -11 -11 -11 -11 -11 -11 -12 -12 -12
-23 -23 -22 -22 -23 -22 -22 -22 -21 -18 -15 -12 -11 -11 -10 -10 -9 -10 -11 -10 -11 -10 -10 -9 -9 -10 -10 -10 -10 -10 -10 -11 -11 -11 -10 -11 -11 -11 -11 -11 -11 -12 -12 -12
-24 -23 -22 -23 -23 -22 -22 -21 -21 -19 -16 -13 -12 -11 -11 -10 -10 -10 -11 -11 -11 -10 -10 -10 -10 -10 -10 -10 -10 -10 -11 -11 -11 -10 -11 -11 -11 -11 -11 -11 -11 -12 -12 -11
-24 -23 -23 -23 -23 -22 -22 -22 -21 -20 -16 -13 -11 -10 -13 -12 -10 -10 -11 -11 -11 -11 -10 -10 -10 -10 -10 -10 -11 -11 -11 -11 -11 -11 -11 -11 -11 -11 -11 -11 -11 -11 -11 -11
-23 -23 -23 -23 -22 -22 -22 -22 -21 -20 -16 -13 -12 -10 -12 -12 -11 -12 -11 -12 -12 -11 -10 -10 -10 -11 -11 -11 -11 -11 -11 -11 -11 -11 -11 -11 -11 -11 -11 -11 -11 -12 -11 -11
-23 -22 -22 -22 -22 -22 -21 -21 -21 -19 -17 -13 -12 -10 -12 -13 -12 -13 -12 -13 -12 -11 -10 -10 -10 -11 -11 -11 -11 -11 -11 -11 -11 -11 -11 -11 -11 -11 -11 -11 -12 -12 -12 -12
-23 -22 -22 -22 -22 -22 -21 -21 -21 -19 -17 -14 -12 -12 -13 -13 -12 -12 -13 -12 -12 -11 -10 -10 -11 -11 -11 -11 -11 -11 -11 -11 -11 -11 -11 -10 -10 -11 -11 -12 -12 -12 -12 -12
-22 -22 -22 -22 -22 -22 -21 -21 -21 -19 -18 -16 -14 -14 -14 -13 -13 -13 -13 -12 -12 -11 -9 -9 -11 -12 -11 -12 -11 -11 -11 -11 -11 -11 -11 -11 -11 -11 -12 -12 -12 -12 -12 -12
-22 -22 -22 -22 -21 -21 -21 -20 -21 -19 -18 -15 -13 -13 -14 -14 -14 -13 -13 -13 -12 -11 -10 -10 -11 -12 -11 -11 -11 -11 -11 -11 -11 -11 -11 -12 -11 -11 -12 -12 -12 -12 -12 -12
-21 -21 -21 -21 -21 -21 -21 -20 -20 -21 -19 -17 -15 -13 -14 -14 -13 -13 -13 -13 -12 -10 -11 -11 -11 -12 -11 -11 -11 -11 -11 -11 -11 -11 -11 -11 -11 -12 -12 -12 -12 -12 -12 -12
-21 -21 -21 -21 -20 -20 -20 -20 -20 -20 -19 -18 -17 -13 -14 -14 -13 -13 -12 -13 -11 -10 -12 -11 -11 -11 -11 -11 -12 -11 -11 -11 -11 -11 -11 -11 -12 -12 -12 -12 -12 -12 -12 -12
-21 -20 -20 -20 -20 -20 -20 -20 -20 -20 -19 -18 -16 -13 -15 -13 -13 -12 -13 -12 -11 -11 -12 -12 -12 -12 -11 -12 -12 -12 -12 -11 -12 -12 -11 -12 -12 -12 -12 -12 -12 -12 -12 -12
-20 -20 -20 -20 -20 -20 -20 -19 -19 -19 -18 -17 -15 -14 -14 -13 -13 -13 -13 -12 -12 -12 -13 -12 -13 -12 -12 -12 -12 -12 -12 -12 -12 -12 -12 -12 -12 -12 -13 -12 -12 -12 -12 -12
-20 -20 -20 -20 -19 -19 -19 -18 -19 -18 -18 -16 -15 -14 -14 -13 -13 -13 -13 -12 -12 -12 -12 -12 -13 -12 -12 -12 -12 -12 -12 -12 -12 -12 -12 -12 -12 -13 -13 -12 -12 -12 -12 -12
-20 -19 -20 -20 -19 -19 -18 -19 -18 -17 -16 -15 -15 -14 -14 -14 -13 -13 -13 -13 -12 -12 -13 -12 -13 -12 -12 -12 -12 -12 -12 -12 -12 -12 -12 -12 -13 -13 -13 -13 -12 -12 -12 -12
-19 -19 -19 -19 -19 -19 -18 -18 -17 -17 -15 -14 -14 -14 -14 -14 -13 -13 -13 -13 -13 -13 -13 -13 -13 -12 -12 -12 -12 -12 -12 -12 -12 -12 -12 -13 -13 -13 -13 -12 -12 -12 -12 -12